Tracking 35237 objects as of 5-Sep-2026
HD Live streaming from Space Station
objects crossing your sky now

PSLV DEB


PSLV DEB is no longer on orbit


NORAD ID: 27112
Int'l Code: 2001-049BG
Launch date: October 22, 2001
Source: India (IND)
Launch site: SRIHARIKOTA (SRI)
Decay date: 2002-03-14

Note: This is SATELLITE DEBRIS
Your satellite tracking list
Your tracking list is empty




NASA's NSSDC Master Catalog

Two Line Element Set (TLE):
1 27112U 01049BG  02073.49028974 +.15453017 +27416-5 +76390-2 0  9990
2 27112 098.0666 159.4275 0007205 026.8779 322.6590 16.20906406010615
Source of the keplerian elements: AFSPC